Torna al catalogo

IUS DEB

AttivoHEO
NORAD 43361·DEBRIS·🇺🇸 United States

Lanciato Jul 23, 1999 da Cape Canaveral Space Force Station

Loading…

Prossimi Passaggi (prossime 24 ore)

TLE

AggiornatoSource: Space-Track

Epoca: Sep 14, 2026, 12:42 UTC

1 43361U 99040J   26257.52944428 -.00000942  00000-0 -34167-1 0  9998
2 43361  27.8080 350.9843 3250352 126.3803 268.2189  7.20386530124961

Traccia IUS DEB in tempo reale con AllMySat

Download on the App Store